| time (UTC) | temp C | wind direction | speed KPH | gust KPH | rain 1hr cm | rain 24hr cm | rain mn cm | humidity % | barometer mb |
| 20260509013058 | 17 | 193 | 0.0 | 1.6 | 0.00 | 0.00 | 0.00 | 80 | 1014.4 |
| 20260509012602 | 17 | 193 | 0.0 | 1.6 | 0.00 | 0.00 | 0.00 | 80 | 1014.2 |
| 20260509012049 | 17 | 193 | 0.0 | 3.2 | 0.00 | 0.00 | 0.00 | 80 | 1014.3 |
| 20260509011602 | 17 | 193 | 1.6 | 3.2 | 0.00 | 0.00 | 0.00 | 80 | 1014.2 |
| 20260509011054 | 17 | 193 | 0.0 | 0.0 | 0.00 | 0.00 | 0.00 | 80 | 1014.4 |
| 20260509010602 | 17 | 193 | 0.0 | 0.0 | 0.00 | 0.00 | 0.00 | 80 | 1014.3 |
| 20260509005600 | 17 | 193 | 0.0 | 0.0 | 0.00 | 0.00 | 0.00 | 79 | 1014.5 |
| 20260509005107 | 17 | 193 | 0.0 | 0.0 | 0.00 | 0.00 | 0.00 | 79 | 1014.6 |
| 20260509005021 | 17 | 193 | 0.0 | 0.0 | 0.00 | 0.00 | 0.00 | 79 | 1014.0 |
| 20260509004549 | 17 | 193 | 0.0 | 0.0 | 0.00 | 0.00 | 0.00 | 79 | 1014.7 |
| 20260509003549 | 17 | 193 | 0.0 | 3.2 | 0.00 | 0.00 | 0.00 | 78 | 1014.6 |
| 20260509003058 | 17 | 193 | 1.6 | 3.2 | 0.00 | 0.00 | 0.00 | 78 | 1014.6 |
| 20260509002053 | 17 | 193 | 1.6 | 4.8 | 0.00 | 0.00 | 0.00 | 77 | 1014.5 |
| 20260509001603 | 17 | 193 | 1.6 | 6.4 | 0.00 | 0.00 | 0.00 | 76 | 1014.6 |
| 20260509001519 | 17 | 193 | 0.0 | 6.4 | 0.00 | 0.00 | 0.00 | 76 | 1014.0 |
| 20260509001046 | 18 | 193 | 3.2 | 9.7 | 0.00 | 0.00 | 0.00 | 76 | 1014.4 |
| 20260509000556 | 18 | 177 | 1.6 | 8.0 | 0.00 | 0.00 | 0.00 | 76 | 1014.5 |
| 20260509000107 | 18 | 192 | 3.2 | 8.0 | 0.00 | 0.00 | 0.00 | 75 | 1014.4 |
| 20260508235551 | 18 | 157 | 1.6 | 8.0 | 0.00 | 0.00 | 0.00 | 75 | 1014.4 |
| 20260508235102 | 18 | 182 | 3.2 | 6.4 | 0.00 | 0.00 | 0.00 | 74 | 1014.5 |
| 20260508234552 | 18 | 169 | 1.6 | 4.8 | 0.00 | 0.00 | 0.00 | 74 | 1014.6 |
| 20260508234059 | 18 | 150 | 1.6 | 6.4 | 0.00 | 0.00 | 0.00 | 74 | 1014.7 |
| 20260508233550 | 18 | 186 | 1.6 | 8.0 | 0.00 | 0.00 | 0.00 | 74 | 1014.3 |
| 20260508233052 | 18 | 178 | 1.6 | 6.4 | 0.00 | 0.00 | 0.00 | 73 | 1014.4 |
| 20260508232556 | 18 | 175 | 3.2 | 6.4 | 0.00 | 0.00 | 0.00 | 73 | 1014.6 |
| 20260508232044 | 18 | 169 | 1.6 | 9.7 | 0.00 | 0.00 | 0.00 | 73 | 1014.6 |
| 20260508231554 | 18 | 173 | 3.2 | 9.7 | 0.00 | 0.00 | 0.00 | 73 | 1014.5 |
| 20260508225552 | 19 | 177 | 1.6 | 6.4 | 0.00 | 0.00 | 0.00 | 71 | 1014.0 |
| 20260508224547 | 19 | 131 | 1.6 | 6.4 | 0.00 | 0.00 | 0.00 | 71 | 1013.7 |
| 20260508223548 | 19 | 169 | 3.2 | 9.7 | 0.00 | 0.00 | 0.00 | 70 | 1013.8 |
| 20260508223059 | 20 | 104 | 1.6 | 8.0 | 0.00 | 0.00 | 0.00 | 70 | 1013.8 |
| 20260508222600 | 19 | 223 | 4.8 | 8.0 | 0.00 | 0.00 | 0.00 | 69 | 1013.8 |
| 20260508221559 | 20 | 158 | 0.0 | 4.8 | 0.00 | 0.00 | 0.00 | 68 | 1014.1 |
| 20260508221105 | 20 | 158 | 1.6 | 4.8 | 0.00 | 0.00 | 0.00 | 68 | 1014.2 |
| 20260508220552 | 20 | 184 | 3.2 | 8.0 | 0.00 | 0.00 | 0.00 | 68 | 1014.1 |
| 20260508215548 | 20 | 173 | 1.6 | 6.4 | 0.00 | 0.00 | 0.00 | 67 | 1014.3 |
| 20260508215056 | 20 | 169 | 1.6 | 6.4 | 0.00 | 0.00 | 0.00 | 65 | 1014.0 |
| 20260508214601 | 20 | 193 | 1.6 | 6.4 | 0.00 | 0.00 | 0.00 | 66 | 1013.9 |
| 20260508214049 | 20 | 108 | 1.6 | 9.7 | 0.00 | 0.00 | 0.00 | 66 | 1014.0 |
| 20260508213557 | 20 | 278 | 4.8 | 9.7 | 0.00 | 0.00 | 0.00 | 65 | 1014.3 |
| 20260508212551 | 20 | 148 | 3.2 | 11.3 | 0.00 | 0.00 | 0.00 | 64 | 1013.9 |
| 20260508212102 | 20 | 157 | 3.2 | 8.0 | 0.00 | 0.00 | 0.00 | 66 | 1014.2 |
| 20260508211551 | 20 | 159 | 3.2 | 9.7 | 0.00 | 0.00 | 0.00 | 66 | 1014.3 |
| 20260508210608 | 20 | 186 | 3.2 | 9.7 | 0.00 | 0.00 | 0.00 | 65 | 1014.3 |
| 20260508210125 | 20 | 148 | 1.6 | 8.0 | 0.00 | 0.00 | 0.00 | 64 | 1014.5 |
| 20260508210018 | 20 | 148 | 3.2 | 8.0 | 0.00 | 0.00 | 0.00 | 64 | 1013.9 |
| 20260508205545 | 20 | 186 | 4.8 | 8.0 | 0.00 | 0.00 | 0.00 | 63 | 1014.3 |
| 20260508205056 | 20 | 84 | 3.2 | 8.0 | 0.00 | 0.00 | 0.00 | 62 | 1014.2 |
| 20260508204602 | 20 | 194 | 4.8 | 8.0 | 0.00 | 0.00 | 0.00 | 63 | 1014.3 |
| 20260508203557 | 20 | 90 | 1.6 | 9.7 | 0.00 | 0.00 | 0.00 | 63 | 1014.2 |
| 20260508203107 | 20 | 113 | 3.2 | 9.7 | 0.00 | 0.00 | 0.00 | 63 | 1014.3 |
| 20260508202552 | 20 | 92 | 3.2 | 6.4 | 0.00 | 0.00 | 0.00 | 62 | 1014.3 |
| 20260508202100 | 20 | 103 | 1.6 | 11.3 | 0.00 | 0.00 | 0.00 | 62 | 1014.2 |
| 20260508201101 | 21 | 84 | 4.8 | 8.0 | 0.00 | 0.00 | 0.00 | 62 | 1014.2 |
| 20260508200553 | 21 | 193 | 1.6 | 4.8 | 0.00 | 0.00 | 0.00 | 63 | 1014.3 |
| 20260508195602 | 21 | 155 | 3.2 | 8.0 | 0.00 | 0.00 | 0.00 | 61 | 1014.3 |
| 20260508195049 | 21 | 112 | 3.2 | 11.3 | 0.00 | 0.00 | 0.00 | 60 | 1014.4 |
| 20260508194559 | 21 | 192 | 4.8 | 11.3 | 0.00 | 0.00 | 0.00 | 58 | 1014.3 |
| 20260508194047 | 21 | 200 | 3.2 | 9.7 | 0.00 | 0.00 | 0.00 | 58 | 1014.3 |
| 20260508192551 | 21 | 200 | 0.0 | 6.4 | 0.00 | 0.00 | 0.00 | 57 | 1014.8 |
| 20260508192101 | 21 | 202 | 3.2 | 6.4 | 0.00 | 0.00 | 0.00 | 56 | 1014.8 |
| 20260508191552 | 21 | 88 | 3.2 | 6.4 | 0.00 | 0.00 | 0.00 | 56 | 1014.9 |
| 20260508191102 | 21 | 176 | 1.6 | 6.4 | 0.00 | 0.00 | 0.00 | 55 | 1014.9 |
| 20260508190554 | 20 | 53 | 0.0 | 3.2 | 0.00 | 0.00 | 0.00 | 57 | 1015.0 |
| 20260508190106 | 21 | 53 | 1.6 | 4.8 | 0.00 | 0.00 | 0.00 | 56 | 1014.9 |
| 20260508185549 | 21 | 134 | 1.6 | 3.2 | 0.00 | 0.00 | 0.00 | 57 | 1015.0 |
| 20260508184603 | 21 | 101 | 3.2 | 8.0 | 0.00 | 0.00 | 0.00 | 53 | 1015.1 |
| 20260508184051 | 21 | 87 | 3.2 | 6.4 | 0.00 | 0.00 | 0.00 | 54 | 1015.2 |
| 20260508183559 | 21 | 158 | 3.2 | 8.0 | 0.00 | 0.00 | 0.00 | 55 | 1015.4 |
| 20260508183049 | 21 | 108 | 3.2 | 12.9 | 0.00 | 0.00 | 0.00 | 57 | 1015.6 |
| 20260508182555 | 21 | 195 | 8.0 | 12.9 | 0.00 | 0.00 | 0.00 | 56 | 1015.6 |
| 20260508182044 | 21 | 91 | 3.2 | 8.0 | 0.00 | 0.00 | 0.00 | 57 | 1015.5 |
| 20260508181554 | 21 | 105 | 1.6 | 6.4 | 0.00 | 0.00 | 0.00 | 59 | 1015.5 |
| 20260508181059 | 21 | 96 | 3.2 | 8.0 | 0.00 | 0.00 | 0.00 | 55 | 1015.7 |
| 20260508180549 | 21 | 169 | 3.2 | 8.0 | 0.00 | 0.00 | 0.00 | 56 | 1015.8 |
| 20260508180101 | 20 | 165 | 3.2 | 6.4 | 0.00 | 0.00 | 0.00 | 55 | 1015.9 |
| 20260508175605 | 21 | 109 | 3.2 | 6.4 | 0.00 | 0.03 | 0.00 | 55 | 1015.9 |
| 20260508175050 | 21 | 86 | 1.6 | 6.4 | 0.00 | 0.03 | 0.00 | 55 | 1015.9 |
| 20260508174558 | 21 | 110 | 1.6 | 6.4 | 0.00 | 0.03 | 0.00 | 52 | 1016.0 |
| 20260508174049 | 21 | 153 | 1.6 | 9.7 | 0.00 | 0.03 | 0.00 | 55 | 1015.9 |
| 20260508173602 | 21 | 204 | 6.4 | 12.9 | 0.00 | 0.03 | 0.00 | 52 | 1016.0 |
| 20260508173053 | 20 | 120 | 6.4 | 12.9 | 0.00 | 0.03 | 0.00 | 55 | 1016.2 |
| 20260508172554 | 20 | 112 | 3.2 | 6.4 | 0.00 | 0.03 | 0.00 | 55 | 1016.2 |
| 20260508171045 | 20 | 117 | 3.2 | 8.0 | 0.00 | 0.03 | 0.00 | 60 | 1016.6 |
| 20260508170554 | 20 | 93 | 3.2 | 8.0 | 0.00 | 0.03 | 0.00 | 61 | 1016.7 |
| 20260508170505 | 20 | 162 | 1.6 | 8.0 | 0.00 | 0.03 | 0.00 | 59 | 1016.1 |
| 20260508170132 | 20 | 153 | 3.2 | 6.4 | 0.00 | 0.03 | 0.00 | 60 | 1016.7 |
| 20260508170020 | 20 | 122 | 1.6 | 6.4 | 0.00 | 0.03 | 0.00 | 61 | 1016.2 |
| 20260508165546 | 20 | 147 | 1.6 | 6.4 | 0.00 | 0.03 | 0.00 | 61 | 1016.8 |
| 20260508165058 | 19 | 139 | 1.6 | 6.4 | 0.00 | 0.03 | 0.00 | 63 | 1016.6 |
| 20260508164606 | 19 | 151 | 1.6 | 8.0 | 0.00 | 0.03 | 0.00 | 62 | 1016.9 |
| 20260508164054 | 19 | 219 | 3.2 | 8.0 | 0.00 | 0.03 | 0.00 | 60 | 1017.0 |
| 20260508163602 | 18 | 115 | 0.0 | 4.8 | 0.00 | 0.03 | 0.00 | 66 | 1016.9 |
| 20260508163051 | 18 | 115 | 0.0 | 4.8 | 0.00 | 0.03 | 0.00 | 62 | 1017.1 |
| 20260508162600 | 19 | 155 | 1.6 | 3.2 | 0.00 | 0.03 | 0.00 | 63 | 1017.4 |
| 20260508162106 | 19 | 158 | 0.0 | 8.0 | 0.00 | 0.03 | 0.00 | 62 | 1017.4 |
| 20260508161551 | 19 | 195 | 3.2 | 8.0 | 0.00 | 0.03 | 0.00 | 61 | 1017.8 |
| 20260508161058 | 19 | 169 | 3.2 | 8.0 | 0.00 | 0.03 | 0.00 | 60 | 1017.4 |
| 20260508160547 | 19 | 186 | 3.2 | 8.0 | 0.00 | 0.03 | 0.00 | 63 | 1017.4 |
| 20260508155547 | 19 | 110 | 3.2 | 4.8 | 0.00 | 0.03 | 0.00 | 61 | 1017.5 |
| 20260508155052 | 19 | 103 | 1.6 | 6.4 | 0.00 | 0.03 | 0.00 | 61 | 1017.6 |
| 20260508155007 | 18 | 103 | 0.0 | 6.4 | 0.00 | 0.03 | 0.00 | 61 | 1017.0 |
| 20260508153602 | 19 | 94 | 3.2 | 9.7 | 0.00 | 0.03 | 0.00 | 61 | 1017.9 |
| 20260508153053 | 19 | 152 | 4.8 | 9.7 | 0.00 | 0.03 | 0.00 | 65 | 1018.0 |
| 20260508152556 | 19 | 338 | 3.2 | 6.4 | 0.00 | 0.03 | 0.00 | 62 | 1017.9 |
| 20260508152047 | 18 | 66 | 1.6 | 6.4 | 0.00 | 0.03 | 0.00 | 67 | 1018.0 |
| 20260508151601 | 18 | 169 | 3.2 | 8.0 | 0.00 | 0.03 | 0.00 | 68 | 1017.9 |
| 20260508150603 | 18 | 168 | 3.2 | 9.7 | 0.00 | 0.03 | 0.00 | 68 | 1017.9 |
| 20260508150054 | 18 | 107 | 3.2 | 9.7 | 0.00 | 0.03 | 0.00 | 69 | 1017.9 |
| 20260508145602 | 17 | 158 | 3.2 | 9.7 | 0.00 | 0.08 | 0.00 | 68 | 1018.0 |
| 20260508145052 | 17 | 164 | 3.2 | 9.7 | 0.00 | 0.08 | 0.00 | 70 | 1017.9 |
| 20260508144544 | 17 | 114 | 3.2 | 6.4 | 0.00 | 0.08 | 0.00 | 71 | 1017.9 |
| 20260508144051 | 17 | 104 | 1.6 | 3.2 | 0.00 | 0.08 | 0.00 | 74 | 1018.0 |
| 20260508143603 | 17 | 104 | 1.6 | 3.2 | 0.00 | 0.08 | 0.00 | 74 | 1018.1 |
| 20260508142545 | 16 | 100 | 1.6 | 4.8 | 0.00 | 0.08 | 0.00 | 75 | 1018.1 |
| 20260508142055 | 16 | 103 | 1.6 | 4.8 | 0.00 | 0.08 | 0.00 | 74 | 1018.2 |
| 20260508141545 | 16 | 112 | 1.6 | 4.8 | 0.00 | 0.08 | 0.00 | 77 | 1018.2 |
| 20260508141056 | 16 | 142 | 0.0 | 0.0 | 0.00 | 0.08 | 0.00 | 76 | 1018.1 |
| 20260508140546 | 16 | 125 | 0.0 | 3.2 | 0.00 | 0.08 | 0.00 | 75 | 1018.0 |
| 20260508140053 | 16 | 125 | 1.6 | 3.2 | 0.00 | 0.08 | 0.00 | 76 | 1018.0 |
| 20260508135601 | 16 | 14 | 0.0 | 1.6 | 0.00 | 0.13 | 0.00 | 79 | 1018.0 |
| 20260508135054 | 15 | 14 | 0.0 | 1.6 | 0.00 | 0.13 | 0.00 | 78 | 1018.0 |
| 20260508134606 | 15 | 1 | 0.0 | 1.6 | 0.00 | 0.13 | 0.00 | 80 | 1018.0 |
| 20260508134053 | 15 | 3 | 0.0 | 1.6 | 0.00 | 0.13 | 0.00 | 80 | 1018.1 |
| 20260508133100 | 15 | 1 | 0.0 | 1.6 | 0.00 | 0.13 | 0.00 | 81 | 1018.2 |
| 20260508132549 | 15 | 1 | 0.0 | 1.6 | 0.00 | 0.13 | 0.00 | 83 | 1018.1 |
| 20260508132055 | 15 | 1 | 0.0 | 1.6 | 0.00 | 0.13 | 0.00 | 84 | 1018.1 |
| 20260508131056 | 14 | 212 | 0.0 | 1.6 | 0.00 | 0.13 | 0.00 | 84 | 1017.9 |
| 20260508130547 | 14 | 266 | 0.0 | 1.6 | 0.00 | 0.13 | 0.00 | 84 | 1018.0 |
| 20260508130058 | 14 | 264 | 0.0 | 1.6 | 0.00 | 0.13 | 0.00 | 85 | 1018.0 |
| 20260508124544 | 13 | 264 | 0.0 | 1.6 | 0.00 | 0.13 | 0.00 | 85 | 1017.9 |
| 20260508124056 | 13 | 264 | 0.0 | 1.6 | 0.00 | 0.13 | 0.00 | 87 | 1017.9 |
| 20260508123607 | 13 | 264 | 0.0 | 1.6 | 0.00 | 0.13 | 0.00 | 87 | 1017.8 |
| 20260508122600 | 13 | 242 | 0.0 | 0.0 | 0.00 | 0.13 | 0.00 | 90 | 1017.9 |
| 20260508122049 | 13 | 242 | 0.0 | 0.0 | 0.00 | 0.13 | 0.00 | 92 | 1017.7 |
| 20260508121552 | 12 | 242 | 0.0 | 0.0 | 0.00 | 0.13 | 0.00 | 93 | 1017.8 |
| 20260508121100 | 12 | 242 | 0.0 | 0.0 | 0.00 | 0.13 | 0.00 | 94 | 1017.7 |
| 20260508120549 | 12 | 242 | 0.0 | 0.0 | 0.00 | 0.13 | 0.00 | 94 | 1017.7 |
| 20260508120058 | 12 | 37 | 0.0 | 0.0 | 0.00 | 0.13 | 0.00 | 94 | 1017.7 |
| 20260508115055 | 11 | 37 | 0.0 | 0.0 | 0.00 | 0.23 | 0.00 | 94 | 1017.6 |
| 20260508114547 | 11 | 37 | 0.0 | 0.0 | 0.00 | 0.23 | 0.00 | 94 | 1017.5 |
| 20260508114057 | 11 | 37 | 0.0 | 0.0 | 0.00 | 0.23 | 0.00 | 94 | 1017.3 |
| 20260508113056 | 11 | 37 | 0.0 | 0.0 | 0.00 | 0.23 | 0.00 | 94 | 1017.0 |
| 20260508112544 | 11 | 37 | 0.0 | 0.0 | 0.00 | 0.23 | 0.00 | 94 | 1016.8 |
| 20260508112055 | 11 | 37 | 0.0 | 0.0 | 0.00 | 0.23 | 0.00 | 94 | 1016.7 |
| 20260508111601 | 11 | 37 | 0.0 | 0.0 | 0.00 | 0.23 | 0.00 | 93 | 1016.6 |
| 20260508111051 | 11 | 37 | 0.0 | 0.0 | 0.00 | 0.23 | 0.00 | 93 | 1016.5 |
| 20260508110603 | 11 | 37 | 0.0 | 0.0 | 0.00 | 0.23 | 0.00 | 93 | 1016.3 |
| 20260508110126 | 11 | 37 | 0.0 | 0.0 | 0.00 | 0.23 | 0.00 | 94 | 1016.2 |
| 20260508110024 | 11 | 37 | 0.0 | 0.0 | 0.00 | 0.23 | 0.00 | 94 | 1015.5 |
| 20260508105547 | 11 | 37 | 0.0 | 0.0 | 0.00 | 0.23 | 0.00 | 93 | 1016.1 |
| 20260508105059 | 11 | 37 | 0.0 | 0.0 | 0.00 | 0.23 | 0.00 | 93 | 1016.1 |
| 20260508104545 | 11 | 37 | 0.0 | 0.0 | 0.00 | 0.23 | 0.00 | 93 | 1016.1 |
| 20260508104053 | 11 | 37 | 0.0 | 0.0 | 0.00 | 0.23 | 0.00 | 93 | 1016.0 |
| 20260508103602 | 11 | 37 | 0.0 | 0.0 | 0.00 | 0.23 | 0.00 | 93 | 1015.8 |
| 20260508103515 | 11 | 37 | 0.0 | 0.0 | 0.00 | 0.23 | 0.00 | 93 | 1015.1 |
| 20260508102553 | 11 | 37 | 0.0 | 0.0 | 0.00 | 0.23 | 0.00 | 93 | 1015.5 |
| 20260508102510 | 11 | 37 | 0.0 | 0.0 | 0.00 | 0.23 | 0.00 | 93 | 1014.8 |
| 20260508101059 | 11 | 37 | 0.0 | 0.0 | 0.00 | 0.23 | 0.00 | 93 | 1015.4 |
| 20260508100551 | 11 | 37 | 0.0 | 0.0 | 0.00 | 0.23 | 0.00 | 93 | 1015.4 |
| 20260508100100 | 11 | 37 | 0.0 | 0.0 | 0.00 | 0.23 | 0.00 | 92 | 1015.5 |
| 20260508095547 | 11 | 37 | 0.0 | 0.0 | 0.00 | 0.41 | 0.00 | 92 | 1015.4 |
| 20260508095057 | 12 | 37 | 0.0 | 0.0 | 0.00 | 0.41 | 0.00 | 92 | 1015.3 |
| 20260508094603 | 12 | 37 | 0.0 | 0.0 | 0.00 | 0.41 | 0.00 | 92 | 1015.2 |
| 20260508093603 | 12 | 37 | 0.0 | 0.0 | 0.00 | 0.41 | 0.00 | 92 | 1015.1 |
| 20260508093054 | 12 | 37 | 0.0 | 0.0 | 0.00 | 0.41 | 0.00 | 92 | 1015.2 |
| 20260508092602 | 12 | 37 | 0.0 | 0.0 | 0.00 | 0.41 | 0.00 | 91 | 1015.1 |
| 20260508092052 | 12 | 37 | 0.0 | 0.0 | 0.00 | 0.41 | 0.00 | 91 | 1015.0 |
| 20260508091600 | 12 | 37 | 0.0 | 0.0 | 0.00 | 0.41 | 0.00 | 91 | 1014.9 |
| 20260508091048 | 12 | 37 | 0.0 | 0.0 | 0.00 | 0.41 | 0.00 | 91 | 1015.0 |
| 20260508090105 | 12 | 37 | 0.0 | 0.0 | 0.00 | 0.41 | 0.00 | 91 | 1015.0 |
| 20260508085551 | 13 | 37 | 0.0 | 0.0 | 0.00 | 0.64 | 0.00 | 91 | 1015.0 |
| 20260508085058 | 13 | 37 | 0.0 | 0.0 | 0.00 | 0.64 | 0.00 | 91 | 1015.0 |
| 20260508084057 | 13 | 37 | 0.0 | 0.0 | 0.00 | 0.64 | 0.00 | 91 | 1014.9 |
| 20260508083602 | 13 | 37 | 0.0 | 0.0 | 0.00 | 0.64 | 0.00 | 91 | 1014.8 |
| 20260508083050 | 13 | 37 | 0.0 | 0.0 | 0.00 | 0.64 | 0.00 | 91 | 1014.9 |
| 20260508082558 | 13 | 37 | 0.0 | 0.0 | 0.00 | 0.64 | 0.00 | 91 | 1014.9 |
| 20260508081051 | 13 | 37 | 0.0 | 0.0 | 0.00 | 0.64 | 0.00 | 90 | 1014.7 |
| 20260508075049 | 13 | 37 | 0.0 | 0.0 | 0.00 | 0.66 | 0.00 | 90 | 1014.5 |
| 20260508074602 | 13 | 37 | 0.0 | 0.0 | 0.00 | 0.66 | 0.00 | 91 | 1014.6 |
| 20260508074050 | 13 | 37 | 0.0 | 0.0 | 0.00 | 0.66 | 0.00 | 90 | 1014.7 |
| 20260508073559 | 13 | 37 | 0.0 | 0.0 | 0.00 | 0.66 | 0.00 | 91 | 1014.6 |
| 20260508073102 | 13 | 37 | 0.0 | 0.0 | 0.00 | 0.66 | 0.00 | 91 | 1014.7 |
| 20260508072546 | 13 | 37 | 0.0 | 0.0 | 0.00 | 0.66 | 0.00 | 90 | 1014.7 |
| 20260508072054 | 13 | 37 | 0.0 | 0.0 | 0.00 | 0.66 | 0.00 | 91 | 1014.6 |
| 20260508071603 | 13 | 37 | 0.0 | 0.0 | 0.00 | 0.66 | 0.00 | 91 | 1014.7 |
| 20260508071053 | 13 | 37 | 0.0 | 0.0 | 0.00 | 0.66 | 0.00 | 91 | 1014.7 |
| 20260508070545 | 13 | 37 | 0.0 | 0.0 | 0.00 | 0.66 | 0.00 | 92 | 1014.8 |
| 20260508070053 | 13 | 37 | 0.0 | 0.0 | 0.00 | 0.66 | 0.00 | 92 | 1014.8 |
| 20260508065602 | 13 | 37 | 0.0 | 0.0 | 0.00 | 0.76 | 0.00 | 92 | 1015.0 |
| 20260508065052 | 13 | 37 | 0.0 | 0.0 | 0.00 | 0.76 | 0.00 | 92 | 1015.0 |
| 20260508064049 | 13 | 37 | 0.0 | 0.0 | 0.00 | 0.76 | 0.00 | 92 | 1015.2 |
| 20260508063517 | 13 | 37 | 0.0 | 0.0 | 0.00 | 0.76 | 0.00 | 92 | 1014.3 |
| 20260508062552 | 13 | 37 | 0.0 | 0.0 | 0.00 | 0.76 | 0.00 | 92 | 1015.0 |
| 20260508062101 | 13 | 37 | 0.0 | 0.0 | 0.00 | 0.76 | 0.00 | 92 | 1015.2 |
| 20260508061549 | 13 | 37 | 0.0 | 0.0 | 0.00 | 0.76 | 0.00 | 92 | 1015.2 |
| 20260508061054 | 13 | 37 | 0.0 | 0.0 | 0.00 | 0.76 | 0.00 | 92 | 1015.3 |
| 20260508060603 | 13 | 37 | 0.0 | 0.0 | 0.00 | 0.76 | 0.00 | 92 | 1015.4 |
| 20260508060054 | 13 | 37 | 0.0 | 0.0 | 0.00 | 0.76 | 0.00 | 92 | 1015.2 |
| 20260508055600 | 13 | 37 | 0.0 | 0.0 | 0.00 | 1.07 | 0.00 | 92 | 1015.3 |
| 20260508055049 | 13 | 37 | 0.0 | 0.0 | 0.00 | 1.07 | 0.00 | 92 | 1015.3 |
| 20260508054558 | 13 | 37 | 0.0 | 0.0 | 0.00 | 1.07 | 0.00 | 92 | 1015.1 |
| 20260508054050 | 13 | 37 | 0.0 | 0.0 | 0.00 | 1.07 | 0.00 | 92 | 1015.4 |
| 20260508053600 | 13 | 37 | 0.0 | 0.0 | 0.00 | 1.07 | 0.00 | 92 | 1015.3 |
| 20260508053106 | 13 | 37 | 0.0 | 0.0 | 0.00 | 1.07 | 0.00 | 92 | 1015.3 |
| 20260508052554 | 13 | 37 | 0.0 | 0.0 | 0.00 | 1.07 | 0.00 | 92 | 1015.3 |
| 20260508052045 | 13 | 37 | 0.0 | 0.0 | 0.00 | 1.07 | 0.00 | 92 | 1015.3 |
| 20260508051049 | 13 | 37 | 0.0 | 0.0 | 0.00 | 1.07 | 0.00 | 91 | 1015.3 |
| 20260508050600 | 14 | 37 | 0.0 | 0.0 | 0.00 | 1.07 | 0.00 | 91 | 1015.3 |
| 20260508050107 | 14 | 37 | 0.0 | 0.0 | 0.00 | 1.07 | 0.00 | 91 | 1015.3 |
| 20260508045101 | 14 | 37 | 0.0 | 0.0 | 0.00 | 1.27 | 0.00 | 90 | 1015.5 |
| 20260508044551 | 14 | 37 | 0.0 | 0.0 | 0.00 | 1.27 | 0.00 | 91 | 1015.5 |
| 20260508044059 | 14 | 37 | 0.0 | 0.0 | 0.00 | 1.27 | 0.00 | 90 | 1015.3 |
| 20260508043547 | 14 | 37 | 0.0 | 0.0 | 0.00 | 1.27 | 0.00 | 90 | 1015.2 |
| 20260508043055 | 14 | 37 | 0.0 | 0.0 | 0.00 | 1.27 | 0.00 | 90 | 1015.1 |
| 20260508042557 | 15 | 37 | 0.0 | 0.0 | 0.00 | 1.27 | 0.00 | 90 | 1015.1 |
| 20260508042047 | 15 | 37 | 0.0 | 0.0 | 0.00 | 1.27 | 0.00 | 90 | 1015.0 |
| 20260508041557 | 15 | 37 | 0.0 | 0.0 | 0.00 | 1.27 | 0.00 | 89 | 1015.1 |
| 20260508041047 | 15 | 37 | 0.0 | 0.0 | 0.00 | 1.27 | 0.00 | 89 | 1015.1 |
| 20260508040600 | 15 | 37 | 0.0 | 0.0 | 0.00 | 1.27 | 0.00 | 90 | 1015.2 |
| 20260508040123 | 15 | 37 | 0.0 | 0.0 | 0.00 | 1.27 | 0.00 | 90 | 1015.3 |
| 20260508035601 | 15 | 37 | 0.0 | 0.0 | 0.00 | 1.27 | 1.27 | 89 | 1015.3 |
| 20260508035048 | 15 | 37 | 0.0 | 0.0 | 0.00 | 1.27 | 1.27 | 89 | 1015.2 |
| 20260508034556 | 15 | 37 | 0.0 | 0.0 | 0.00 | 1.27 | 1.27 | 89 | 1015.2 |
| 20260508033559 | 15 | 37 | 0.0 | 0.0 | 0.00 | 1.27 | 1.27 | 89 | 1015.2 |
| 20260508032556 | 15 | 37 | 0.0 | 0.0 | 0.00 | 1.27 | 1.27 | 89 | 1015.0 |
| 20260508032100 | 15 | 37 | 0.0 | 0.0 | 0.00 | 1.27 | 1.27 | 89 | 1015.0 |
| 20260508031551 | 15 | 37 | 0.0 | 0.0 | 0.00 | 1.27 | 1.27 | 89 | 1015.0 |
| 20260508031102 | 15 | 37 | 0.0 | 0.0 | 0.00 | 1.27 | 1.27 | 88 | 1014.9 |
| 20260508030117 | 16 | 37 | 0.0 | 0.0 | 0.00 | 1.27 | 1.27 | 88 | 1014.9 |
| 20260508025556 | 16 | 37 | 0.0 | 0.0 | 0.00 | 1.35 | 1.27 | 88 | 1014.9 |
| 20260508024550 | 16 | 37 | 0.0 | 0.0 | 0.00 | 1.35 | 1.27 | 88 | 1014.8 |
| 20260508024101 | 16 | 37 | 0.0 | 0.0 | 0.00 | 1.35 | 1.27 | 88 | 1014.6 |
| 20260508023552 | 16 | 37 | 0.0 | 0.0 | 0.00 | 1.35 | 1.27 | 88 | 1014.8 |
| 20260508023104 | 16 | 37 | 0.0 | 0.0 | 0.00 | 1.35 | 1.27 | 88 | 1014.5 |
| 20260508022100 | 16 | 37 | 0.0 | 0.0 | 0.00 | 1.35 | 1.27 | 87 | 1014.8 |
| 20260508021549 | 16 | 37 | 0.0 | 0.0 | 0.00 | 1.35 | 1.27 | 87 | 1014.8 |
| 20260508020054 | 16 | 37 | 0.0 | 0.0 | 0.00 | 1.35 | 1.27 | 88 | 1014.7 |
| 20260508015602 | 16 | 37 | 0.0 | 0.0 | 0.00 | 1.68 | 1.27 | 89 | 1014.5 |
| 20260508015053 | 16 | 37 | 0.0 | 0.0 | 0.00 | 1.68 | 1.27 | 87 | 1014.6 |
| 20260508014606 | 16 | 37 | 0.0 | 0.0 | 0.00 | 1.68 | 1.27 | 87 | 1014.4 |
| 20260508013601 | 16 | 37 | 0.0 | 0.0 | 0.00 | 1.68 | 1.27 | 87 | 1014.3 |